Holland, MI

5:52 PM EDT on September 30, 2016 (GMT -0400)
Tulip City

Weather History for KBIV - March, 2013

Change the Weather History Date:

Saturday, March 9, 2013

  Actual Average Record
Temperature  
Mean Temperature 35 °F 34 °F  
Max Temperature 44 °F 42 °F 65 °F (1987)
Min Temperature 26 °F 27 °F -2 °F (1978)
Degree Days  
Heating Degree Days 30 31  
Month to date heating degree days 329 288  
Since 1 July heating degree days 4581 4788  
Cooling Degree Days 0 0  
Month to date cooling degree days 0 0  
Year to date cooling degree days 0 0  
Moisture  
Dew Point 26 °F    
Average Humidity 65    
Maximum Humidity 81    
Minimum Humidity 49    
Precipitation  
Precipitation T in 0.07 in 0.98 in (2006)
Month to date precipitation T 0.71  
Year to date precipitation 5.76 4.60  
Sea Level Pressure  
Sea Level Pressure 30.18 in    
Wind  
Wind Speed 10 mph (SE)    
Max Wind Speed 18 mph    
Max Gust Speed 24 mph    
Visibility 10 miles    
Events      
T = Trace of Precipitation, MM = Missing Value Source: NWS Daily Summary

Daily Weather History Graph

Daily Weather History Graph

Search for Another Location

Airport or City:

Trip Planner

Search our weather history database for the weather conditions in past years. The results will help you decide how hot, cold, wet, or windy it might be!

Date:

Astronomy

Mar. 09, 2013 Rise Set
Actual Time 7:06 AM EST 6:43 PM EST
Civil Twilight 6:38 AM EST 7:12 PM EST
Nautical Twilight 6:05 AM EST 7:44 PM EST
Astronomical Twilight 5:32 AM EST 8:18 PM EST
Moon 5:32 AM EST (3/9) 4:43 PM EST (3/9)
Length of Visible Light 12h 34m
Length of Day
11h 37m
Waning Crescent, 5% of the Moon is Illuminated
Mar 9
Waning Crescent
Mar 11
New
Mar 19
First Quarter
Mar 27
Full
Apr 3
Last Quarter

Hourly Weather History & Observations

Time (EST) Temp. Windchill Dew Point Humidity Pressure Visibility Wind Dir Wind Speed Gust Speed Precip Events Conditions
12:53 AM 28.0 °F 24.2 °F 21.9 °F 78% 30.39 in 10.0 mi SSE 3.5 mph - N/A   Clear
1:53 AM 26.1 °F 21.9 °F 19.9 °F 78% 30.38 in 10.0 mi ESE 3.5 mph - N/A   Clear
2:53 AM 27.0 °F 21.6 °F 19.9 °F 75% 30.35 in 10.0 mi SE 4.6 mph - N/A   Clear
3:53 AM 28.9 °F 22.8 °F 19.0 °F 67% 30.34 in 10.0 mi SE 5.8 mph - N/A   Clear
4:53 AM 28.9 °F 23.9 °F 19.9 °F 69% 30.32 in 10.0 mi ESE 4.6 mph - N/A   Clear
5:53 AM 30.0 °F 22.4 °F 21.0 °F 69% 30.30 in 10.0 mi ESE 8.1 mph - N/A   Clear
6:53 AM 30.9 °F 25.2 °F 21.9 °F 69% 30.30 in 10.0 mi ESE 5.8 mph - N/A   Clear
7:53 AM 33.1 °F 25.5 °F 24.1 °F 70% 30.30 in 10.0 mi SE 9.2 mph - N/A   Clear
8:53 AM 35.1 °F 30.1 °F 26.1 °F 70% 30.31 in 10.0 mi SSE 5.8 mph - N/A   Clear
9:53 AM 37.0 °F 32.4 °F 26.1 °F 65% 30.30 in 10.0 mi SSE 5.8 mph - N/A   Partly Cloudy
10:53 AM 37.9 °F 30.0 °F 26.1 °F 62% 30.28 in 10.0 mi SE 12.7 mph - N/A   Mostly Cloudy
11:53 AM 39.9 °F 32.5 °F 27.0 °F 60% 30.25 in 10.0 mi SE 12.7 mph - N/A   Mostly Cloudy
12:53 PM 39.9 °F 32.5 °F 27.0 °F 60% 30.19 in 10.0 mi SE 12.7 mph - N/A   Overcast
1:53 PM 41.0 °F 33.5 °F 28.0 °F 60% 30.14 in 10.0 mi ESE 13.8 mph - 0.00 in   Mostly Cloudy
2:53 PM 42.1 °F 35.2 °F 28.0 °F 58% 30.11 in 10.0 mi SE 12.7 mph - N/A   Overcast
3:53 PM 43.0 °F 37.2 °F 28.0 °F 56% 30.09 in 10.0 mi ESE 10.4 mph - N/A   Overcast
4:53 PM 44.1 °F 37.4 °F 27.0 °F 51% 30.07 in 10.0 mi SE 13.8 mph - N/A   Mostly Cloudy
5:53 PM 43.0 °F 37.7 °F 28.0 °F 56% 30.05 in 10.0 mi SE 9.2 mph - N/A   Overcast
6:53 PM 41.0 °F 33.9 °F 28.0 °F 60% 30.04 in 10.0 mi SE 12.7 mph - N/A   Scattered Clouds
7:53 PM 42.1 °F 34.9 °F 28.0 °F 58% 30.01 in 10.0 mi SE 13.8 mph - N/A   Overcast
8:53 PM 42.1 °F 34.9 °F 30.0 °F 62% 30.00 in 10.0 mi SE 13.8 mph - 0.00 in   Overcast
9:53 PM 42.1 °F 34.9 °F 30.0 °F 62% 29.99 in 10.0 mi SSE 13.8 mph - N/A   Scattered Clouds
10:53 PM 42.1 °F 34.9 °F 30.9 °F 65% 29.97 in 10.0 mi SE 13.8 mph - N/A   Clear
11:53 PM 43.0 °F 36.4 °F 30.9 °F 62% 29.95 in 10.0 mi SSE 12.7 mph - N/A   Mostly Cloudy